This demonstration page uses our WeatherBlox Daily Observations layout. Learn more.

Left ArrowRight Arrow

Hourly Observations for March 10, 2021

Temp ( °F °C ) Dew Point ( °F °C ) Humidity (%) Winds ( mph kmh ) Pressure ( in mb ) Visibility ( mi km ) Precip ( " mm )
12:53 am 00:53 Clear 23 -5 15 -9.4 72 72 N N/A 29.93 1014 10 16 N/A
1:53 am 01:53 Clear 21 -6.1 17 -8.3 85 85 NE 5 7 29.93 1014 10 16 N/A
2:53 am 02:53 Clear 20 -6.7 17 -8.3 89 89 ESE 5 7 29.92 1013 10 16 N/A
3:53 am 03:53 Clear 20 -6.7 16 -8.9 85 85 NE 5 7 29.91 1013 10 16 N/A
4:53 am 04:53 Clear 19 -7.2 16 -8.9 88 88 E 3 6 29.93 1013 10 16 N/A
5:53 am 05:53 Clear 19 -7.2 15 -9.4 84 84 N N/A 29.93 1014 10 16 N/A
6:53 am 06:53 Sunny 20 -6.7 15 -9.4 81 81 SW 3 6 29.94 1014 10 16 N/A
7:53 am 07:53 Sunny 25 -3.9 20 -6.7 81 81 N N/A 29.94 1014 10 16 N/A
8:53 am 08:53 Sunny 32 undefined 26 -3.3 79 79 WSW 9 15 29.93 1014 10 16 N/A
9:53 am 09:53 Sunny 36 2.2 24 -4.4 62 62 SW 17 28 29.93 1013 10 16 N/A
10:53 am 10:53 Sunny 39 3.9 24 -4.4 55 55 SW 15 24 29.93 1013 10 16 N/A
11:53 am 11:53 Sunny 43 6.1 24 -4.4 47 47 WSW 9 15 29.93 1013 10 16 N/A
12:53 pm 12:53 Sunny 43 6.1 23 -5 45 45 WSW 10 17 29.93 1013 10 16 N/A
1:53 pm 13:53 Mostly Sunny 46 7.8 22 -5.6 38 38 NW 8 13 29.92 1013 10 16 N/A
2:53 pm 14:53 Cloudy 43 6.1 22 -5.6 43 43 NW 14 22 29.94 1014 10 16 N/A
3:53 pm 15:53 Cloudy 40 4.4 27 -2.8 60 60 N 7 11 29.97 1015 7 11 N/A
4:53 pm 16:53 Sunny 43 6.1 25 -3.9 49 49 N 6 9 29.98 1015 10 16 N/A
5:53 pm 17:53 Mostly Sunny 34 1.1 26 -3.3 73 73 NNE 17 28 30.03 1017 10 16 N/A
6:53 pm 18:53 Mostly Clear 29 -1.7 24 -4.4 82 82 NNE 12 19 30.10 1019 10 16 N/A
7:45 pm 19:45 Mostly Cloudy 28 -2.2 23 -5 81 81 NNE 9 15 30.15 1021 10 16 N/A
7:53 pm 19:53 Mostly Cloudy 28 -2.2 23 -5 81 81 NNE 9 15 30.13 1020 10 16 N/A
8:53 pm 20:53 Cloudy 28 -2.2 22 -5.6 78 78 NE 10 17 30.14 1021 10 16 N/A
9:53 pm 21:53 Cloudy 28 -2.2 22 -5.6 78 78 NNE 8 13 30.15 1021 10 16 N/A
10:53 pm 22:53 Cloudy 28 -2.2 22 -5.6 78 78 NNE 7 11 30.16 1022 10 16 N/A
11:53 pm 23:53 Cloudy 28 -2.2 22 -5.6 78 78 ENE 6 9 30.17 1022 10 16 N/A

Powered by AerisWeather